Weather History for KUKI - May, 2013

Change the Weather History Date:

Sunday, May 5, 2013

  Actual Average Record
Temperature  
Mean Temperature 59 °F 60 °F  
Max Temperature 64 °F 75 °F 98 °F (1987)
Min Temperature 53 °F 46 °F 32 °F (1924)
Degree Days  
Heating Degree Days 6 6  
Month to date heating degree days 31  
Since 1 July heating degree days 2977  
Cooling Degree Days 0 1  
Month to date cooling degree days 5  
Year to date cooling degree days 13  
Growing Degree Days 8 (Base 50)    
Moisture  
Dew Point 46 °F    
Average Humidity 66    
Maximum Humidity 77    
Minimum Humidity 55    
Precipitation  
Precipitation T in 0.07 in 0.70 in (1986)
Month to date precipitation T 0.35  
Year to date precipitation 5.13 21.97  
Since 1 July precipitation 27.83  
Snow  
Snow 0.00 in - - ()
Month to date snowfall 0.0  
Since 1 July snowfall 0.0  
Snow Depth -    
Sea Level Pressure  
Sea Level Pressure 29.68 in    
Wind  
Wind Speed 12 mph (SSE)    
Max Wind Speed 21 mph    
Max Gust Speed 29 mph    
Visibility 10 miles    
Events      
T = Trace of Precipitation, MM = Missing Value Source: NWS Daily Summary

Daily Weather History Graph

Daily Weather History Graph

Search for Another Location

Airport or City:

Trip Planner

Search our weather history database for the weather conditions in past years. The results will help you decide how hot, cold, wet, or windy it might be!

Date:

Astronomy

May. 05, 2013 Rise Set
Actual Time 6:09 AM PDT 8:10 PM PDT
Civil Twilight 5:40 AM PDT 8:39 PM PDT
Nautical Twilight 5:04 AM PDT 9:15 PM PDT
Astronomical Twilight 4:26 AM PDT 9:53 PM PDT
Moon 3:41 AM PDT (5/5) 4:16 PM PDT (5/5)
Length of Visible Light 14h 59m
Length of Day
14h 00m
Waning Crescent, 17% of the Moon is Illuminated
May 5
Waning Crescent
May 9
New
May 17
First Quarter
May 24
Full
May 31
Last Quarter

Hourly Weather History & Observations

Time (PDT) Temp. Dew Point Humidity Pressure Visibility Wind Dir Wind Speed Gust Speed Precip Events Conditions
12:56 AM 55.9 °F 46.9 °F 72% 29.57 in 10.0 mi SSE 12.7 mph 25.3 mph N/A   Clear
1:56 AM 53.1 °F 46.9 °F 80% 29.57 in 10.0 mi SSE 16.1 mph 26.5 mph N/A   Clear
2:56 AM 53.1 °F 46.9 °F 80% 29.57 in 10.0 mi SSE 13.8 mph 26.5 mph N/A   Clear
3:56 AM 54.0 °F 46.0 °F 75% 29.58 in 10.0 mi SSE 15.0 mph 19.6 mph N/A   Partly Cloudy
4:17 AM 53.6 °F 46.4 °F 77% 29.61 in 10.0 mi SSE 10.4 mph 17.3 mph N/A   Mostly Cloudy
4:39 AM 53.6 °F 46.4 °F 77% 29.61 in 10.0 mi SSE 12.7 mph 20.7 mph N/A   Scattered Clouds
4:56 AM 54.0 °F 46.0 °F 75% 29.60 in 10.0 mi SSE 6.9 mph - N/A   Partly Cloudy
5:56 AM 54.0 °F 46.0 °F 75% 29.61 in 10.0 mi SSE 9.2 mph 20.7 mph N/A   Partly Cloudy
6:56 AM 54.0 °F 46.0 °F 75% 29.63 in 10.0 mi SSE 10.4 mph 17.3 mph N/A   Scattered Clouds
7:06 AM 55.4 °F 46.4 °F 72% 29.65 in 10.0 mi SSE 9.2 mph 18.4 mph N/A   Mostly Cloudy
7:56 AM 55.0 °F 46.0 °F 72% 29.65 in 10.0 mi SSE 12.7 mph 19.6 mph N/A   Mostly Cloudy
8:09 AM 55.4 °F 46.4 °F 72% 29.67 in 10.0 mi SSE 12.7 mph 21.9 mph N/A   Scattered Clouds
8:56 AM 57.0 °F 46.0 °F 67% 29.67 in 10.0 mi SSE 9.2 mph 17.3 mph N/A   Overcast
9:56 AM 59.0 °F 46.0 °F 62% 29.68 in 10.0 mi SSE 16.1 mph 21.9 mph N/A   Scattered Clouds
10:56 AM 60.1 °F 46.0 °F 60% 29.69 in 10.0 mi SSE 16.1 mph 23.0 mph N/A   Overcast
11:56 AM 61.0 °F 45.0 °F 56% 29.71 in 10.0 mi SSE 15.0 mph 24.2 mph N/A   Overcast
12:56 PM 62.1 °F 46.0 °F 56% 29.72 in 10.0 mi South 16.1 mph 26.5 mph N/A   Mostly Cloudy
1:56 PM 61.0 °F 46.0 °F 58% 29.73 in 10.0 mi SSE 10.4 mph 19.6 mph N/A   Overcast
2:56 PM 61.0 °F 46.0 °F 58% 29.73 in 10.0 mi SE 9.2 mph - N/A   Scattered Clouds
3:56 PM 62.1 °F 46.0 °F 56% 29.73 in 10.0 mi SSE 5.8 mph - 0.00 in   Partly Cloudy
4:56 PM 64.0 °F 46.0 °F 52% 29.72 in 10.0 mi SSE 9.2 mph - N/A   Partly Cloudy
5:56 PM 63.0 °F 46.0 °F 54% 29.72 in 10.0 mi SSE 9.2 mph - N/A   Partly Cloudy
6:56 PM 62.1 °F 46.9 °F 58% 29.73 in 10.0 mi SSE 9.2 mph - N/A   Overcast
7:56 PM 60.1 °F 46.9 °F 62% 29.74 in 10.0 mi SSE 9.2 mph - N/A   Mostly Cloudy
8:56 PM 59.0 °F 46.9 °F 64% 29.75 in 10.0 mi South 6.9 mph - N/A   Overcast
9:56 PM 57.9 °F 46.9 °F 67% 29.78 in 10.0 mi SSE 6.9 mph - N/A   Mostly Cloudy
10:56 PM 57.0 °F 46.9 °F 69% 29.81 in 10.0 mi SSE 5.8 mph - N/A   Mostly Cloudy
11:56 PM 57.0 °F 46.9 °F 69% 29.83 in 10.0 mi SSE 3.5 mph - N/A   Overcast